Theta_e
305 305 305 305 305 305 305 306 306 305 303 301 297 298 292 291 288 299 301 303 301 294 286 288 287 285 288 292 291 293 291 289 291 290 292 290 292 291 290 291 290 291 290 289 287 288 285 286 286 287 289 290 291 291 291 293 292 294 292 291 293 300 291 287 288 290 291 292 293 294 293 295 291 292 294 292 291 293 291 291 293 288 291 288 288 285 290
305 304 304 305 305 305 306 306 306 306 303 300 299 294 292 292 292 295 302 303 300 291 282 283 284 286 290 290 289 293 291 290 289 290 292 290 289 290 290 291 293 291 293 292 287 289 284 286 287 287 288 290 291 289 290 293 291 292 291 291 300 287 288 289 285 285 287 290 291 291 292 292 292 291 293 293 294 293 294 294 294 288 292 291 287 282 293
304 304 305 305 305 305 306 306 306 306 305 303 298 292 292 293 295 296 298 302 298 287 288 285 285 285 285 285 285 287 289 292 292 292 290 293 292 291 290 292 294 292 293 291 292 290 289 286 288 289 289 290 291 290 290 293 292 294 295 299 298 291 290 288 283 280 278 278 280 283 285 288 292 292 292 293 292 294 292 287 289 285 291 292 289 288 296
304 304 304 305 305 305 305 306 306 306 305 303 300 295 292 291 284 291 293 296 295 293 294 290 286 285 285 284 286 288 287 291 294 293 290 292 292 292 292 293 293 292 292 292 289 288 292 289 288 288 288 289 290 290 291 291 293 298 301 301 298 291 292 291 291 288 286 288 290 290 291 290 288 290 292 291 293 295 295 296 289 286 289 290 294 296 296
304 304 304 304 304 305 305 305 305 305 305 304 300 296 293 293 286 287 284 291 291 289 292 289 289 285 289 283 287 286 288 289 289 296 289 295 292 293 292 292 292 292 292 291 290 291 289 289 289 288 290 290 291 289 291 291 294 303 303 301 296 294 289 290 292 293 292 290 290 291 292 290 291 290 291 292 291 294 295 289 288 297 291 287 295 297 297
304 303 304 304 304 305 305 305 305 305 305 304 301 293 295 286 290 292 294 287 283 285 286 290 288 289 289 286 289 287 287 288 286 289 292 295 296 292 292 292 293 293 293 293 288 290 290 289 287 289 290 290 292 290 290 290 296 303 300 300 298 293 287 290 289 289 292 291 291 293 293 292 291 292 293 291 292 293 292 293 296 297 290 288 295 298 298
303 303 303 303 304 304 304 305 305 305 303 303 299 291 295 295 294 294 299 288 290 288 290 291 290 289 290 288 288 286 287 287 290 288 290 293 293 294 287 292 293 293 294 294 292 292 287 286 293 290 291 291 293 289 289 291 295 300 298 295 296 295 289 292 291 292 293 293 294 294 294 292 291 293 292 293 293 293 294 295 295 297 294 297 298 299 300
303 303 303 303 303 304 304 304 305 305 304 302 298 296 291 290 290 289 296 295 293 293 293 291 291 288 292 287 288 288 287 287 287 289 290 286 290 294 290 291 294 294 293 294 292 294 295 294 288 295 294 293 293 292 295 290 296 297 296 295 295 293 287 292 293 291 292 293 292 294 294 293 294 292 289 289 291 293 296 296 291 293 294 293 299 298 299
302 302 303 303 303 303 304 304 305 304 304 299 296 294 299 297 299 297 290 288 291 294 292 291 290 288 289 287 289 289 290 288 291 291 294 292 290 290 288 292 294 294 296 297 296 297 296 296 296 298 295 290 297 293 291 294 292 294 295 296 296 297 290 293 293 287 289 293 293 292 292 292 293 293 292 292 290 290 292 292 295 294 295 295 297 295 296
302 302 302 302 302 303 304 304 304 304 304 300 298 293 303 300 303 301 295 287 292 290 293 292 291 286 290 290 291 291 291 291 293 288 292 293 294 293 293 294 294 296 297 296 297 299 298 299 299 298 300 301 299 299 297 295 294 294 295 298 294 296 295 291 289 286 286 291 291 292 293 292 289 290 295 294 294 292 293 294 294 297 300 294 291 296 303
301 301 301 302 302 302 303 303 304 304 303 297 295 295 298 295 293 295 295 287 288 291 291 291 289 292 293 294 292 294 292 292 292 287 288 293 296 296 295 294 294 293 295 298 301 302 303 303 302 302 301 301 299 299 298 297 296 295 296 296 295 298 297 292 294 285 287 291 292 292 289 282 285 293 291 295 295 293 294 296 297 298 301 298 301 302 303
301 301 301 301 302 302 302 303 303 303 303 302 301 297 300 301 298 296 290 285 287 293 292 290 292 293 292 294 293 292 291 291 291 294 291 293 295 296 296 296 296 292 300 302 302 303 302 301 301 301 300 300 299 300 299 297 296 298 298 297 296 297 295 292 292 288 288 291 290 287 281 284 294 294 294 293 294 294 295 294 292 296 295 295 298 300 302
300 300 301 301 301 302 302 302 303 303 303 303 301 295 300 302 297 294 292 289 286 291 289 292 295 295 295 295 293 294 295 295 295 295 294 294 295 296 297 297 297 298 303 302 302 303 299 296 295 295 295 295 298 299 298 297 297 298 298 299 298 292 292 290 289 290 290 288 288 280 283 292 294 294 293 295 294 294 295 294 296 296 297 299 300 301 303
300 300 300 301 301 302 302 302 303 303 304 304 300 299 301 301 296 295 293 289 289 294 293 293 295 295 295 295 294 294 293 294 293 295 295 296 295 296 298 298 302 303 303 303 300 299 295 293 290 292 292 293 295 295 294 296 297 298 298 298 299 299 296 293 289 290 287 288 288 286 291 292 293 293 292 292 296 294 294 291 296 299 297 299 300 301 303
299 300 300 301 301 301 302 302 303 303 304 304 302 301 301 301 300 297 297 294 287 292 294 289 293 295 295 294 294 295 294 294 295 294 294 295 295 298 300 302 303 303 304 302 299 295 292 292 289 287 289 288 284 287 294 294 295 296 297 298 298 298 294 296 292 286 288 288 286 287 287 284 290 300 299 300 299 301 299 297 296 297 299 300 302 301 302
299 300 300 300 301 301 302 302 302 303 303 304 302 300 301 302 303 301 297 293 290 288 293 297 298 296 294 294 293 293 292 292 293 292 295 295 295 298 300 301 302 302 300 296 294 292 289 290 283 285 284 286 286 288 288 295 293 296 297 298 298 297 298 295 293 288 286 287 286 285 284 287 295 297 297 300 298 301 300 295 291 300 299 300 303 302 303
299 299 300 300 301 301 302 302 302 303 303 303 300 300 299 303 301 299 297 296 294 290 299 299 300 298 296 297 297 295 295 293 294 291 291 293 292 291 297 303 303 303 299 300 295 294 291 287 288 289 288 289 287 287 293 292 290 291 296 298 297 296 292 292 290 285 288 288 286 285 286 289 294 295 296 299 298 300 297 287 289 300 299 301 303 302 302
298 299 299 300 300 301 301 302 302 303 303 304 301 299 299 304 303 302 298 296 292 292 298 301 299 297 297 297 294 296 297 298 297 294 294 294 292 294 297 300 298 300 300 297 292 290 287 287 287 287 287 292 292 291 286 290 288 289 291 292 292 291 290 291 288 290 286 286 287 287 288 292 293 296 299 298 300 298 289 286 293 299 300 301 304 303 303
298 298 299 300 300 300 301 301 302 302 302 303 302 301 300 303 303 303 299 297 296 290 298 301 303 301 302 303 300 299 298 298 297 292 292 292 297 298 297 298 297 297 297 293 293 290 289 287 289 290 290 290 293 287 291 289 288 290 291 289 288 288 288 286 288 288 288 288 288 287 289 295 297 298 299 300 296 288 289 298 297 299 300 302 304 304 304
298 298 299 299 300 300 301 301 302 302 302 303 301 297 299 302 303 303 299 295 297 295 298 299 302 300 303 300 299 299 299 298 296 297 292 290 297 297 296 293 298 297 295 296 290 288 289 288 290 290 290 291 292 294 291 290 292 292 291 291 291 291 288 287 288 286 285 285 287 284 283 289 300 298 298 298 291 293 298 298 298 300 302 302 303 304 304
298 298 299 299 300 300 301 301 301 302 302 302 301 298 297 302 300 303 302 299 295 291 294 300 302 302 303 302 303 302 300 300 300 300 299 296 299 295 289 288 297 294 292 292 289 289 290 289 291 290 292 293 294 292 288 289 292 294 294 294 293 293 289 287 287 291 288 286 284 286 292 296 301 301 295 298 299 300 299 301 299 301 303 303 303 304 305
298 298 298 299 300 300 301 301 301 301 302 302 302 299 295 300 301 302 303 302 295 291 296 301 303 302 304 305 305 305 304 304 304 305 303 296 298 297 296 296 296 297 298 296 294 291 292 292 293 291 291 292 293 289 290 289 288 293 294 294 289 295 294 294 290 293 290 290 292 295 295 297 299 297 297 297 299 298 299 302 303 301 302 305 304 303 304
298 298 298 299 299 300 300 300 301 301 302 302 301 298 295 298 299 302 301 297 300 300 302 302 303 303 304 305 307 308 308 309 308 307 308 300 294 296 298 299 299 299 299 297 297 295 295 295 292 295 293 294 292 290 291 291 289 293 291 295 294 295 296 294 295 295 294 295 295 295 295 297 298 297 297 297 299 299 300 302 301 303 304 304 304 303 301
298 298 298 298 299 300 300 300 301 301 301 302 301 298 297 299 300 300 300 299 296 292 296 299 295 294 297 298 302 305 308 307 307 308 311 309 295 295 299 299 298 300 301 302 300 300 295 293 292 295 292 295 294 291 289 288 289 295 293 292 295 296 295 295 294 295 292 290 295 295 295 295 297 298 298 298 298 299 301 302 303 303 303 303 303 301 300
297 298 298 298 299 299 300 300 301 301 301 302 301 301 301 299 301 300 298 291 291 291 289 292 293 299 299 301 301 301 302 304 307 308 308 309 306 300 298 301 304 301 301 300 297 297 292 293 293 293 290 294 296 291 293 291 291 294 291 294 293 294 298 295 293 293 292 292 295 295 296 296 296 297 299 300 300 300 300 302 302 303 303 303 302 301 300
297 298 298 298 299 299 300 300 300 301 301 301 302 299 297 297 299 301 299 299 296 294 289 288 294 302 298 300 301 301 300 299 300 305 307 308 308 308 306 304 302 301 299 297 300 296 292 291 290 292 293 291 296 293 291 293 293 294 294 294 297 295 296 292 294 293 295 295 295 295 296 297 297 297 298 300 300 300 299 300 301 301 301 300 301 302 301
297 298 298 298 298 299 300 300 300 300 300 301 300 300 299 299 301 299 298 298 293 290 289 288 292 295 297 296 299 302 300 300 301 300 299 299 300 302 304 302 302 300 300 299 295 291 291 291 292 293 295 292 295 294 294 293 294 292 292 294 295 295 294 294 292 290 291 293 297 297 294 293 299 298 299 299 299 300 299 299 299 300 299 300 299 300 301
297 297 298 298 299 299 300 300 300 300 300 301 301 300 300 298 299 300 301 299 297 290 288 287 291 295 299 295 298 299 299 300 299 300 297 297 298 300 301 299 300 301 299 298 294 294 294 293 294 289 290 293 294 291 292 293 294 293 293 295 296 296 296 295 293 292 292 297 297 299 299 298 299 300 299 299 299 300 299 299 299 300 300 300 299 298 298
297 297 298 298 299 299 300 300 300 300 301 300 299 298 298 298 300 300 300 301 300 297 291 291 295 294 291 298 300 300 299 301 304 300 299 298 299 300 300 299 300 297 295 293 292 292 293 292 290 294 294 296 296 291 292 290 289 289 294 296 296 297 297 300 300 299 299 298 298 298 298 298 298 296 298 297 299 300 300 300 300 300 300 300 300 299 298
297 297 298 298 299 299 300 300 300 300 300 299 297 294 294 297 300 300 302 302 301 301 290 289 287 290 298 297 300 298 297 299 299 301 301 300 300 299 297 300 298 296 298 294 295 294 291 292 289 292 294 296 294 291 290 289 290 293 294 293 295 295 295 298 299 298 298 297 297 297 297 296 297 297 298 298 299 300 299 298 299 299 299 301 300 299 300
297 298 298 298 299 299 300 300 300 300 300 297 294 287 288 288 295 302 302 302 302 299 291 290 289 292 291 299 294 296 296 297 300 298 299 297 297 298 297 297 296 296 297 293 294 291 290 292 290 294 294 294 292 292 292 291 290 292 294 295 296 296 296 297 297 297 297 296 297 296 296 296 297 297 297 297 298 299 298 298 299 299 299 300 300 300 299
297 298 298 299 299 299 299 300 300 300 299 297 294 292 295 295 298 301 303 304 301 299 294 291 288 289 287 291 298 297 295 297 295 297 299 298 301 298 299 297 296 297 295 292 289 291 291 288 290 293 295 293 291 290 291 292 289 292 294 295 295 295 295 297 297 297 297 298 298 297 296 295 297 298 297 297 298 299 299 298 299 299 299 300 300 300 300
297 298 298 298 299 299 300 300 300 300 298 299 301 301 301 301 302 302 304 301 300 293 294 291 286 285 284 294 296 301 296 296 300 296 299 296 300 296 298 295 297 298 296 296 291 290 290 289 289 291 293 292 289 288 292 289 293 293 293 294 294 295 296 296 296 297 298 297 298 298 297 296 297 295 296 297 298 298 298 298 299 299 299 298 298 298 299
297 298 298 298 299 300 300 300 300 300 300 297 296 298 300 301 302 303 303 300 296 292 291 291 288 287 288 294 292 300 296 296 294 293 291 296 292 296 292 296 296 293 293 294 290 290 290 290 292 290 292 290 287 290 288 293 292 292 293 294 294 294 296 296 296 296 297 297 296 296 299 298 297 296 297 297 297 298 299 299 299 298 297 297 297 297 298
298 298 298 299 299 300 300 300 299 296 294 294 294 297 301 303 302 302 302 300 293 288 288 287 286 286 286 287 285 295 295 294 294 292 291 294 295 296 295 293 292 292 291 295 289 288 289 290 292 290 289 290 289 286 288 293 292 293 293 294 294 295 295 295 295 296 296 296 296 296 297 297 296 296 296 296 296 297 297 298 299 298 296 296 296 296 296
297 298 298 299 299 298 298 299 297 293 291 293 296 300 300 301 302 302 302 301 297 289 284 284 286 286 285 283 285 290 295 293 290 292 290 288 292 292 292 292 290 290 290 290 289 290 289 292 290 288 287 287 287 290 294 295 295 294 295 296 295 297 298 299 297 295 295 296 296 297 297 297 297 296 296 296 296 297 298 297 298 298 296 295 295 295 296
297 298 298 297 296 297 293 288 294 296 295 296 298 300 301 301 301 303 300 300 300 298 295 287 286 287 288 288 286 288 292 290 291 292 292 289 288 287 289 290 288 289 289 290 288 290 290 293 289 286 286 287 289 293 295 295 295 295 295 296 297 295 295 296 297 296 295 295 295 296 296 295 295 295 295 295 296 297 297 296 297 296 294 294 294 294 294
298 297 293 291 294 289 288 291 294 297 298 298 298 297 296 298 291 290 291 292 295 300 290 291 288 289 288 288 286 299 293 290 290 289 289 286 287 287 286 289 287 288 286 285 287 291 288 287 285 285 287 293 291 290 293 294 294 295 296 296 296 296 296 296 297 297 295 294 293 293 294 294 294 295 295 295 296 296 297 297 297 296 296 295 295 294 294
295 292 290 289 290 288 288 293 297 298 296 296 296 291 290 286 288 287 288 287 288 291 290 290 289 289 290 288 291 295 292 290 289 288 287 290 287 286 287 285 285 287 284 283 287 290 287 285 282 283 286 291 294 295 292 293 292 294 296 296 297 296 297 297 299 299 298 298 297 297 297 295 294 294 296 296 296 297 297 296 295 295 295 294 294 294 294
292 288 285 285 285 288 294 296 298 295 294 291 288 288 287 287 286 285 285 286 288 286 287 288 291 290 291 291 288 291 296 292 288 288 288 289 291 287 285 286 284 285 280 280 284 289 286 282 280 281 286 290 293 294 293 294 294 294 295 296 296 297 297 298 298 299 299 299 300 299 300 299 298 297 296 296 296 295 295 295 295 295 294 294 294 294 293
290 289 288 285 289 292 293 295 295 293 289 289 288 285 283 284 286 285 284 282 282 286 288 293 289 289 288 289 291 289 297 296 292 290 289 287 290 290 285 283 284 283 278 281 286 285 285 282 279 282 286 292 294 294 293 294 295 294 295 296 297 297 297 297 298 298 299 298 297 298 298 298 298 298 298 298 297 296 296 295 294 294 295 294 293 294 295
292 291 292 294 294 294 293 292 289 288 287 287 284 282 282 283 285 285 285 284 284 284 289 289 288 290 290 292 293 294 293 295 293 287 288 286 287 286 283 282 282 281 278 284 284 283 284 281 279 281 289 291 290 290 293 295 294 295 295 296 297 297 297 298 298 298 299 299 298 298 298 298 298 298 298 298 297 297 295 294 294 294 294 295 295 295 294
297 296 294 291 289 288 288 287 287 286 282 282 278 280 281 281 283 283 284 284 285 286 288 291 290 292 291 292 292 292 292 294 292 290 287 286 285 284 283 281 279 279 282 285 284 281 280 279 278 287 292 291 290 292 294 295 296 296 296 296 297 298 298 298 299 298 298 299 298 298 298 298 298 297 298 298 297 296 296 295 294 294 294 294 294 295 295
294 294 290 287 286 286 285 282 287 286 282 278 278 278 279 280 283 282 282 285 288 287 288 287 288 288 288 292 291 289 290 291 290 286 285 283 285 281 280 279 281 283 285 283 281 281 281 280 285 291 292 289 289 290 293 294 294 295 294 295 296 297 297 298 297 297 296 297 297 297 298 298 297 296 297 297 297 296 295 295 295 295 294 295 294 294 295
287 285 284 284 283 284 283 276 282 282 279 280 280 279 279 280 281 281 283 286 287 287 288 288 288 286 286 291 289 289 288 289 289 288 284 285 283 281 281 282 283 281 282 280 278 278 279 282 290 288 289 290 291 292 294 295 295 297 296 295 296 296 297 298 298 297 297 297 297 297 297 296 296 296 296 297 298 297 295 294 293 293 294 294 294 293 293
285 284 282 278 274 279 279 276 277 280 281 280 281 284 284 284 285 285 287 287 287 289 287 288 287 286 286 289 287 288 285 287 287 285 283 284 283 281 283 283 284 281 277 277 276 277 281 287 289 291 293 291 290 292 294 295 295 296 296 296 296 296 297 298 298 297 297 297 297 297 296 296 296 296 295 296 297 296 296 295 294 294 294 294 293 293 293
285 285 282 280 276 280 281 278 279 281 282 284 284 284 285 285 285 286 287 286 287 289 288 289 287 288 287 288 288 287 285 285 286 285 284 284 282 283 283 283 278 276 275 274 274 276 282 288 289 291 291 290 290 292 294 294 294 295 298 298 296 297 297 297 297 297 297 297 297 297 296 296 296 296 296 295 295 296 295 295 295 295 295 294 294 294 293
282 283 283 277 275 279 280 281 283 285 283 284 285 284 284 284 285 287 289 289 288 288 287 288 287 287 287 288 288 287 285 284 285 284 284 284 283 281 278 276 275 276 277 279 281 285 288 290 292 293 292 290 292 293 294 294 294 296 297 296 297 297 296 297 297 297 296 296 297 297 296 296 296 295 295 296 295 295 295 295 295 295 296 295 294 294 294
286 284 283 281 281 281 282 284 285 285 285 284 283 284 285 286 285 286 289 288 287 288 288 287 286 287 286 286 285 285 285 286 283 283 284 283 280 276 276 275 274 277 281 283 287 289 291 293 292 289 289 290 292 294 295 295 295 296 296 297 297 297 297 297 298 297 297 297 297 297 296 296 296 296 295 295 295 294 295 295 295 295 296 294 293 293 294
284 282 282 282 282 281 283 283 284 284 284 284 285 285 285 285 286 288 288 287 288 287 288 287 287 287 286 285 283 282 284 284 284 283 281 279 277 277 277 275 275 279 287 286 285 289 292 292 289 290 293 294 293 294 295 295 293 296 297 297 297 297 297 298 297 297 297 297 297 297 297 295 295 295 295 295 296 296 295 294 295 295 295 295 294 294 293
283 283 282 284 282 281 283 280 280 280 282 284 284 285 285 285 286 288 289 287 288 287 286 285 283 284 285 282 281 280 283 285 284 283 282 282 280 279 280 279 284 285 288 291 291 291 292 291 290 292 293 294 294 295 296 296 296 296 297 297 296 297 297 298 297 297 297 297 297 292 295 296 296 296 297 297 296 294 294 293 294 295 295 295 295 294 294
279 279 281 283 283 284 285 284 284 284 284 285 285 286 285 285 287 288 288 287 287 286 284 283 284 283 279 281 283 284 284 285 282 281 280 282 282 282 281 284 290 291 291 291 292 292 290 290 290 290 292 293 294 295 295 296 296 296 296 296 296 296 296 297 297 297 297 297 296 297 297 297 297 297 296 295 295 294 293 293 293 294 294 295 295 295 295
Wind_Speed
22 22 21 21 23 20 18 17 16 11 4 2 5 2 2 2 1 2 3 5 3 2 2 2 1 3 2 4 6 5 5 4 3 4 3 3 5 3 5 4 4 4 1 3 6 6 3 2 5 3 8 9 7 5 11 12 13 10 3 2 5 2 3 6 1 2 2 3 3 2 4 11 3 6 4 9 10 7 5 1 6 7 4 3 2 4 1
23 23 23 22 23 20 18 17 17 12 4 2 1 2 2 1 1 1 3 3 1 2 2 2 2 3 3 4 7 4 5 4 5 4 4 3 0 2 2 0 4 1 1 2 8 3 5 3 4 3 1 6 2 7 6 13 10 12 5 8 7 3 2 4 4 5 6 4 3 3 2 5 4 6 5 9 5 4 2 5 1 4 7 6 6 11 2
24 23 22 22 23 21 19 18 17 12 3 3 1 2 2 3 2 2 2 2 2 3 2 2 4 4 6 5 5 4 4 6 9 5 3 4 4 2 2 2 1 1 0 2 3 3 2 4 4 2 3 3 1 5 8 9 10 7 6 2 7 1 3 6 7 9 9 10 11 8 6 8 2 1 6 7 12 9 5 6 5 7 2 7 8 3 2
22 22 22 21 23 22 20 16 17 13 3 3 1 0 1 1 2 1 0 3 3 4 4 4 4 6 5 4 2 1 4 2 5 8 6 8 5 5 4 2 3 1 2 3 4 4 3 2 3 3 3 2 2 3 8 6 9 9 10 10 8 2 1 1 2 5 6 3 2 2 2 6 10 6 10 9 9 11 10 3 5 9 4 6 3 1 5
23 22 23 23 22 22 21 17 15 12 5 1 0 1 1 0 2 1 1 1 5 5 3 3 3 2 1 3 4 5 6 7 3 3 2 3 5 2 4 2 2 1 3 5 4 1 3 3 7 5 5 1 2 1 6 6 9 10 10 12 5 3 3 3 4 3 2 2 3 3 2 10 10 9 10 12 12 9 11 7 7 8 6 7 3 5 8
23 23 22 23 22 22 20 17 17 13 6 2 1 1 2 1 0 1 2 2 1 1 3 7 7 9 5 3 3 5 8 7 4 2 3 4 5 3 1 1 2 3 5 6 4 5 3 1 5 5 1 5 3 6 2 5 6 11 6 8 4 4 4 2 3 2 2 1 0 1 2 1 3 7 9 12 12 11 15 13 5 11 8 7 8 11 9
22 23 22 21 22 22 20 18 17 16 8 3 2 2 2 3 2 3 1 1 2 5 4 4 6 6 6 2 3 4 4 6 4 2 5 3 1 3 0 5 6 2 3 3 6 6 6 4 0 5 4 5 5 4 3 1 0 6 5 3 1 4 4 4 4 3 1 3 1 2 4 2 2 5 5 6 13 15 14 12 6 11 5 2 11 14 15
23 22 21 22 22 21 21 21 18 16 12 1 3 2 3 2 4 3 3 5 6 6 3 3 4 4 4 1 3 2 3 6 5 2 2 3 4 5 3 7 8 3 5 2 8 9 8 10 6 4 8 3 2 4 2 5 2 3 7 6 0 3 2 4 4 4 1 3 1 1 2 5 6 3 1 2 3 4 1 3 3 5 4 1 8 11 9
22 22 22 22 22 21 21 21 20 18 14 2 1 3 2 3 3 4 6 6 4 3 1 3 3 2 2 0 3 2 3 4 5 8 3 5 2 2 3 6 6 2 4 7 5 2 5 6 10 11 12 8 6 6 3 6 9 7 4 3 1 1 1 0 2 4 3 2 1 1 1 0 3 3 3 4 6 8 5 5 7 8 6 6 8 4 5
22 22 22 22 21 20 20 20 20 17 13 3 2 3 0 3 3 3 4 3 3 4 3 3 1 1 0 1 3 3 5 5 5 5 2 4 6 5 3 6 2 3 10 11 6 4 1 3 3 2 1 4 5 3 5 9 11 5 7 2 5 4 5 3 2 5 1 1 1 3 4 2 5 6 7 8 1 2 2 4 1 3 12 10 6 9 7
22 22 22 22 21 21 20 19 18 18 10 8 6 3 4 4 4 4 2 2 3 2 4 3 2 2 1 2 5 2 4 3 3 1 3 3 1 3 3 4 1 4 8 4 3 2 3 5 6 6 8 9 8 5 7 6 3 8 9 4 1 6 7 2 1 5 2 2 1 1 3 5 3 3 1 4 5 8 7 4 6 6 8 4 0 3 10
22 22 23 22 22 21 21 19 17 17 12 7 6 4 3 4 3 2 2 2 3 2 3 3 4 4 4 6 3 4 6 3 5 5 6 4 7 5 2 1 2 3 2 2 1 3 3 2 3 8 14 12 11 9 9 8 3 3 2 9 8 9 5 3 1 2 2 2 3 2 6 4 3 0 2 3 3 3 2 2 4 6 2 1 4 9 15
22 23 23 23 22 22 21 20 19 18 15 8 6 5 3 5 3 2 2 2 3 6 6 5 5 6 6 6 5 5 6 7 6 7 7 5 5 4 1 2 4 2 3 3 1 2 1 1 3 4 5 4 6 12 12 8 6 3 3 1 9 8 6 3 2 1 2 2 4 4 1 2 1 2 2 3 3 2 2 3 6 9 10 7 7 8 10
22 23 23 23 23 21 22 21 20 19 18 12 8 6 4 3 2 1 2 1 4 3 4 7 4 9 9 7 4 6 3 1 2 3 2 2 4 6 4 3 2 1 1 3 5 2 1 1 1 3 2 1 2 5 2 5 5 4 5 2 0 10 7 5 3 2 3 2 5 2 4 2 2 2 5 9 6 9 8 7 6 12 9 8 6 8 10
22 22 22 23 23 22 22 22 21 21 19 17 7 5 4 3 2 2 1 1 2 4 2 5 9 9 9 5 4 5 3 5 4 1 2 0 3 5 4 5 2 4 1 2 1 3 2 1 1 2 2 2 3 2 0 2 1 4 2 4 6 1 8 4 7 1 1 3 4 2 2 4 3 7 2 5 3 5 1 2 2 4 9 9 9 12 14
22 22 22 22 22 22 22 22 22 21 21 20 8 7 3 3 2 2 2 0 2 2 2 1 4 5 5 4 2 4 3 2 3 3 4 1 3 7 3 4 4 0 3 5 2 2 1 0 2 1 1 1 0 2 2 2 3 2 2 6 9 5 5 2 4 4 2 2 5 3 4 3 1 2 3 4 1 3 2 1 3 6 13 12 13 15 16
22 22 22 22 22 22 22 22 22 21 20 22 12 7 2 4 2 1 2 2 2 2 4 4 3 2 3 3 0 2 2 2 4 2 2 5 6 6 11 7 1 1 2 3 3 1 1 3 1 1 1 1 1 1 2 1 5 4 5 6 8 5 1 1 1 3 2 3 3 4 2 1 1 3 4 5 3 2 3 2 2 8 15 15 15 18 19
22 22 22 22 22 22 22 22 22 22 20 19 12 8 4 2 3 2 2 2 2 4 3 1 5 3 3 1 2 2 0 1 1 1 1 1 2 4 7 6 6 1 1 1 1 2 2 1 1 0 1 0 2 2 2 1 4 3 5 3 4 2 1 0 5 4 2 4 1 2 2 3 1 4 6 4 4 3 4 4 0 3 11 13 16 18 19
22 22 22 22 22 22 22 21 21 21 22 22 13 6 1 2 5 3 2 3 2 3 4 1 4 4 3 0 2 0 1 1 2 1 2 1 2 5 5 5 1 1 5 2 2 2 1 1 1 1 1 1 1 0 1 1 2 1 2 4 3 2 2 1 2 3 5 2 4 3 1 1 5 2 5 4 4 4 5 1 2 6 11 9 8 12 14
22 22 22 22 22 22 22 21 21 21 21 22 13 6 7 7 4 2 3 3 2 6 8 6 2 3 1 3 4 1 0 1 0 2 2 2 1 7 1 2 1 2 1 1 1 1 0 1 1 1 1 1 1 1 1 1 2 1 1 2 1 5 4 3 4 2 3 0 1 1 4 2 9 13 5 0 2 0 1 0 0 4 10 13 11 12 13
22 22 22 22 22 22 22 21 21 22 21 21 16 7 5 0 3 2 2 3 3 5 5 1 2 5 5 8 8 8 5 4 2 3 1 3 2 1 1 0 2 2 1 2 1 1 0 1 1 0 1 0 1 2 0 1 1 0 2 1 0 2 2 1 1 4 3 4 5 2 1 3 12 10 5 6 2 2 2 3 2 4 8 11 10 11 13
22 23 23 22 21 21 21 21 22 22 22 21 17 7 4 2 3 4 3 2 3 4 5 5 3 10 12 11 11 9 10 10 5 1 1 3 1 1 2 1 3 2 1 2 1 1 1 2 1 1 2 1 1 0 0 1 2 2 0 2 2 3 1 1 2 5 3 1 1 1 1 3 2 3 2 3 2 2 2 1 3 8 8 7 9 12 11
23 23 23 23 22 22 21 21 22 23 22 21 15 6 7 9 7 5 3 3 5 6 7 8 7 8 8 9 11 11 10 7 4 3 4 2 2 1 3 2 2 2 0 1 1 1 1 3 0 1 2 1 2 2 1 1 1 1 2 1 2 2 1 1 1 1 1 3 3 3 2 2 4 1 2 3 3 1 2 4 4 4 7 10 10 10 11
22 22 23 23 23 23 23 22 22 22 22 20 14 8 8 7 8 6 2 3 1 5 3 3 4 3 4 7 4 3 3 3 8 6 4 5 0 2 1 4 1 1 1 1 0 1 2 1 0 0 1 2 3 1 2 3 2 2 1 1 1 1 3 2 1 2 3 2 3 1 2 4 2 2 1 1 2 2 1 3 2 4 7 5 6 11 12
23 23 23 23 23 24 24 24 23 22 22 21 15 7 6 5 2 1 3 2 2 2 2 5 3 4 2 5 6 4 3 3 3 6 6 6 7 3 3 2 2 2 3 1 2 3 1 1 1 1 1 1 2 2 2 1 1 3 3 1 1 3 5 1 1 2 2 1 2 3 3 4 4 2 3 2 0 1 0 1 2 5 5 7 11 12 12
23 23 23 23 23 24 24 24 24 23 23 23 18 8 6 6 3 2 3 1 1 1 1 3 5 3 2 6 3 4 2 2 2 4 5 7 7 7 5 1 1 4 3 1 1 1 1 1 1 1 2 2 1 0 2 0 2 1 2 1 1 2 3 2 3 2 2 3 4 3 4 4 4 4 4 2 1 2 3 5 7 9 10 10 9 9 14
23 23 23 24 24 24 24 24 24 23 23 24 13 9 8 8 6 7 3 2 1 0 1 2 5 9 6 11 5 4 4 2 3 4 3 1 2 1 4 3 2 2 1 2 3 2 1 1 0 1 0 1 1 1 2 2 2 2 2 1 2 3 4 2 2 1 2 3 2 6 2 1 4 8 7 5 4 4 6 6 8 10 12 13 13 9 8
24 24 24 24 24 24 24 24 24 24 24 24 13 9 8 6 4 7 6 3 2 0 2 3 6 10 9 6 3 3 3 1 2 4 2 2 4 4 3 2 3 2 2 2 1 1 0 1 1 0 0 1 2 1 1 2 1 0 2 3 5 2 4 5 2 2 0 1 2 4 3 2 3 1 6 5 6 6 8 10 10 9 10 13 15 14 11
24 24 24 25 24 24 24 24 23 23 24 19 11 9 1 3 4 3 5 2 2 1 1 3 5 4 3 6 8 4 1 1 1 3 4 3 4 5 6 4 2 3 3 3 2 1 1 1 0 1 2 1 1 2 2 2 1 2 1 3 4 1 2 4 1 2 1 2 2 4 0 3 1 2 5 5 5 6 6 5 6 10 12 13 14 16 17
25 25 25 25 25 25 24 24 23 21 19 10 7 2 1 1 1 2 2 1 1 1 1 2 3 2 3 3 5 4 4 3 4 4 5 4 4 4 2 2 2 1 1 1 0 1 0 1 0 1 1 2 1 1 1 1 1 1 1 1 2 2 2 3 1 1 1 1 2 2 0 2 2 4 4 4 4 5 6 7 8 9 9 10 13 11 14
26 26 26 26 25 25 25 23 21 19 14 6 3 1 1 1 2 2 1 3 2 2 1 1 3 4 5 2 0 5 5 5 3 4 3 3 1 1 1 1 2 2 0 0 1 1 0 1 0 1 0 3 1 1 2 2 1 1 3 1 1 2 3 4 1 1 3 5 5 5 5 4 4 6 5 3 4 4 5 5 6 8 10 10 11 12 11
26 27 26 27 26 24 24 23 22 17 8 6 5 3 2 2 1 3 5 5 1 2 1 1 3 2 2 5 4 2 3 2 1 2 1 3 1 2 2 3 1 2 1 2 0 1 1 0 0 1 1 2 1 2 1 1 0 1 2 1 0 1 1 2 2 4 4 8 10 8 4 2 2 0 2 5 4 4 6 8 8 9 9 9 9 10 12
26 26 27 26 27 26 25 24 21 14 9 10 15 20 20 19 17 13 4 1 1 1 1 1 1 1 1 4 6 3 3 2 1 5 0 3 2 3 1 2 1 2 1 2 2 1 0 1 0 1 2 1 0 1 1 1 2 1 0 1 1 1 2 1 2 5 7 2 3 1 4 6 6 1 4 6 6 7 8 10 10 10 10 11 11 11 11
27 27 28 28 28 27 25 23 20 12 6 4 4 4 3 3 5 6 2 1 1 1 0 0 1 1 3 3 2 1 3 3 2 3 0 2 0 1 1 2 2 1 4 2 0 0 0 0 0 1 1 1 1 0 1 1 1 2 1 1 1 2 3 4 4 6 2 2 0 1 3 7 7 7 7 7 7 6 8 9 12 13 12 12 13 12 13
27 27 28 29 28 26 23 14 1 3 3 3 3 3 2 5 5 4 4 3 2 0 1 0 0 1 2 2 1 3 2 1 1 2 0 1 2 2 1 0 1 1 0 1 1 1 0 1 0 1 1 1 0 1 2 2 3 3 3 3 3 4 5 5 3 2 1 0 3 6 8 11 11 8 7 7 8 9 11 12 13 14 12 11 12 12 12
27 28 28 28 28 16 2 1 1 2 1 1 2 3 8 16 14 6 5 5 2 2 1 0 0 1 1 1 2 1 2 1 1 2 1 2 1 2 1 1 1 1 0 1 0 0 0 1 1 0 1 0 2 3 2 3 5 6 6 6 7 6 3 3 8 5 4 5 6 6 8 8 9 9 7 8 8 9 11 12 12 13 13 12 12 12 10
27 28 29 21 7 3 0 1 1 1 2 4 11 17 19 10 1 2 3 2 2 1 2 2 1 3 4 1 1 3 3 2 3 2 3 2 1 1 2 1 0 1 0 1 1 1 1 1 0 0 0 2 2 3 2 3 4 6 6 5 7 3 3 5 9 10 10 9 8 6 5 8 8 6 7 8 7 8 11 12 11 13 14 13 11 11 11
26 24 8 3 2 0 0 0 1 5 14 14 9 3 2 2 1 0 0 1 2 0 1 1 3 0 2 1 3 1 1 1 2 1 0 0 0 0 0 1 0 1 0 0 0 1 1 3 2 0 3 4 3 4 5 4 3 2 2 4 6 4 5 9 10 10 11 9 6 7 7 7 7 6 8 8 9 9 8 8 8 8 9 10 9 9 9
15 7 3 3 1 1 0 1 6 17 11 5 2 1 1 0 1 0 1 0 0 1 0 2 3 2 3 3 5 2 1 1 1 2 0 1 0 0 1 0 0 0 1 1 1 2 1 0 0 1 3 3 3 1 1 2 2 2 3 3 6 5 6 8 10 12 12 9 11 13 12 10 11 9 7 8 6 6 7 8 8 8 9 9 10 9 10
8 9 6 5 1 2 5 6 13 10 2 1 1 1 1 1 1 1 0 1 1 0 1 2 2 3 5 5 3 3 1 2 1 1 0 1 0 1 0 0 0 0 0 1 1 2 0 1 0 1 2 1 2 1 1 0 1 2 3 5 6 5 6 6 4 3 5 5 6 9 2 7 12 12 10 10 9 8 7 7 8 9 9 10 11 11 11
7 6 5 3 5 7 9 13 9 2 0 1 0 1 1 0 0 0 0 1 1 1 0 0 1 1 1 1 3 3 1 3 2 2 1 0 0 2 0 0 0 0 0 0 0 0 1 0 0 1 2 2 1 1 0 1 2 2 2 4 5 5 6 5 2 0 3 5 5 4 5 8 10 11 10 12 11 10 9 8 8 9 10 10 12 9 8
7 7 8 10 10 11 8 3 1 0 0 0 2 0 0 1 0 0 0 1 0 0 1 1 0 1 2 5 3 3 1 0 2 1 0 0 0 0 1 1 1 1 0 0 1 1 1 0 1 3 3 3 2 0 1 3 3 4 4 5 6 6 6 5 4 2 4 6 6 6 7 9 9 8 9 10 9 9 9 9 8 9 10 9 8 9 9
14 11 5 3 3 1 1 1 0 1 1 0 2 0 1 1 1 1 0 0 1 0 2 2 3 3 2 1 2 3 1 1 1 0 0 0 0 1 2 1 1 0 0 1 0 1 0 0 1 3 2 2 1 3 4 1 1 2 3 3 4 4 6 6 5 4 4 5 7 8 8 9 9 7 7 8 8 9 8 9 10 9 8 9 9 9 10
6 2 2 0 2 2 0 1 0 1 2 1 2 2 0 0 0 1 1 0 2 1 2 4 4 4 0 0 0 1 0 1 1 1 1 0 0 0 1 0 0 1 1 0 1 0 1 1 3 4 3 2 3 4 4 3 3 4 3 3 3 4 4 4 5 6 5 4 4 4 5 7 8 6 6 7 10 11 9 7 7 10 10 9 9 9 9
3 2 2 0 1 1 0 1 2 2 2 1 1 1 2 2 1 1 2 0 1 3 2 1 2 1 5 3 0 1 0 0 0 0 1 0 1 0 0 0 0 1 1 0 1 1 0 1 2 3 5 4 3 4 4 4 5 6 6 5 4 5 6 6 6 5 6 6 8 8 7 7 8 8 8 8 7 9 10 9 8 9 10 10 9 9 8
3 1 3 2 2 2 1 1 1 1 0 1 0 2 1 0 1 2 0 1 2 3 5 4 2 1 3 2 0 0 0 0 1 0 0 1 0 0 0 0 0 0 0 1 1 1 1 3 4 5 4 3 2 3 5 5 4 3 7 7 6 6 6 6 6 6 6 6 6 7 8 8 8 8 8 7 7 7 8 9 10 10 10 10 10 10 10
1 0 0 0 0 1 0 0 0 0 1 0 1 0 1 2 2 3 3 0 3 3 4 3 4 3 2 1 0 0 0 0 0 0 0 0 1 0 0 0 1 0 1 1 2 3 3 4 4 5 5 3 1 3 5 5 5 6 6 5 7 7 6 5 6 6 6 7 7 7 7 8 8 7 7 7 5 6 7 9 10 11 11 11 10 10 10
1 2 0 1 1 0 1 0 1 1 0 1 1 1 2 2 2 1 1 2 3 2 4 4 1 1 1 1 1 0 0 0 1 0 0 1 1 1 1 1 0 1 2 1 2 4 3 3 3 4 2 1 2 5 6 6 6 7 6 6 8 8 8 7 6 5 7 8 8 7 7 7 7 8 9 9 8 6 7 8 10 11 9 9 9 10 11
1 1 0 1 0 0 1 1 1 2 1 2 1 1 2 2 1 3 3 1 2 4 3 2 0 0 0 0 0 0 1 0 1 1 0 1 0 2 1 1 0 1 3 4 3 2 2 3 3 3 3 2 2 4 5 6 7 8 8 8 8 9 8 8 8 8 8 7 7 7 7 7 7 7 6 6 8 7 7 8 9 8 8 10 10 10 10
1 2 0 0 1 0 1 1 1 0 2 2 1 1 1 2 3 2 1 4 3 3 0 1 1 0 0 0 0 1 1 1 1 1 1 1 1 1 1 0 3 2 0 2 3 5 6 5 2 4 3 3 4 5 6 6 7 7 6 7 6 7 8 9 8 8 8 7 8 8 8 8 7 7 8 10 8 7 8 8 8 8 8 9 11 11 11
0 0 1 1 0 0 1 1 1 1 2 3 4 3 3 3 2 3 2 3 6 2 2 1 1 1 0 1 1 0 1 0 1 2 2 2 1 2 2 2 2 3 3 4 5 3 3 2 2 4 4 4 3 4 5 7 8 8 7 7 7 7 7 8 9 9 9 7 7 8 8 8 8 9 8 6 7 8 8 8 8 8 9 8 9 10 10
1 0 0 0 1 1 1 0 1 2 2 2 2 2 0 3 2 3 2 3 3 2 1 0 0 0 1 1 1 1 1 1 1 1 0 2 2 2 2 3 2 4 6 4 3 2 2 3 3 4 5 5 4 2 4 5 7 7 8 8 8 8 9 8 8 8 8 7 8 8 8 8 8 6 6 7 8 8 8 7 7 8 7 7 8 9 10
Wind_Direction
357 356 354 352 351 354 357 355 351 359 342 30 352 309 356 46 181 331 153 163 178 303 277 248 242 250 253 287 288 259 261 253 261 292 265 263 219 216 209 220 183 245 204 172 127 138 105 179 143 144 168 186 212 161 172 148 159 151 160 81 166 148 152 160 41 84 326 328 300 95 200 173 164 234 170 168 200 199 221 259 134 191 132 193 146 236 177
359 358 357 354 354 357 357 355 354 2 64 70 289 42 39 330 290 46 75 173 255 291 310 320 314 290 285 285 285 262 274 268 280 241 244 222 305 244 237 342 236 350 220 136 147 184 130 293 139 107 209 177 109 146 159 160 161 168 192 176 170 175 301 179 151 151 150 158 106 133 81 206 216 191 178 197 163 133 90 85 11 217 190 190 168 234 154
357 358 359 358 356 360 360 355 351 352 66 158 104 45 323 294 251 244 156 177 255 260 208 258 293 296 305 301 281 278 250 233 236 251 262 247 266 278 240 252 146 230 261 89 91 32 100 140 314 89 170 123 18 140 153 185 156 181 173 182 141 279 150 172 180 168 168 179 191 186 178 193 169 280 168 195 184 144 145 206 171 228 120 190 212 213 68
355 356 358 355 356 358 4 1 358 3 26 153 65 19 285 331 293 143 236 175 191 258 271 279 274 293 306 307 304 282 292 281 230 224 249 231 250 259 293 296 196 183 145 99 134 134 8 110 169 198 138 112 134 189 157 180 170 169 160 143 149 130 88 171 151 194 175 156 129 29 113 131 201 182 183 184 198 180 197 133 180 211 129 202 187 167 147
355 356 360 359 357 357 359 4 5 5 2 214 203 290 193 268 249 209 275 138 218 250 227 240 221 249 329 303 356 324 334 308 309 182 258 175 190 251 207 252 175 168 134 114 101 87 123 9 137 195 157 60 90 23 171 176 186 165 158 150 101 125 179 181 142 166 127 108 108 124 226 189 185 167 193 182 182 190 192 193 215 108 134 225 125 189 155
357 358 356 358 359 356 356 1 4 3 348 353 262 277 228 256 276 204 192 231 251 209 244 226 242 252 264 271 298 304 334 355 356 310 255 289 218 221 118 220 9 237 198 141 118 163 108 139 174 195 307 105 109 111 314 188 195 166 156 170 154 132 194 167 191 149 102 257 235 220 159 227 201 200 180 186 192 179 198 211 170 163 205 230 168 185 200
357 357 356 356 357 356 357 1 359 358 347 322 285 310 226 236 279 269 263 282 192 204 245 211 237 252 220 255 292 305 331 339 1 272 308 322 138 242 108 341 349 301 217 191 128 163 138 220 314 187 158 161 133 98 86 241 350 171 134 152 347 157 212 148 195 148 122 55 261 196 185 154 182 210 227 217 183 190 198 201 167 195 202 14 169 175 204
357 356 355 355 357 357 357 360 360 357 349 186 312 324 321 356 342 327 299 256 275 274 264 274 309 316 333 310 281 257 315 328 328 262 217 340 342 9 8 338 344 36 141 191 157 176 167 167 198 211 160 143 194 149 183 133 90 154 157 154 40 213 172 133 151 181 227 22 78 108 178 168 214 209 219 153 273 247 321 71 83 77 66 157 166 179 211
356 356 356 355 357 358 357 356 359 359 352 333 36 324 289 325 308 311 316 314 290 288 200 298 326 336 32 136 289 283 335 321 336 308 241 214 257 63 302 327 327 49 106 73 55 324 223 235 211 166 162 175 198 167 223 159 144 149 136 163 83 231 94 336 141 185 198 10 18 116 110 171 238 265 215 165 163 188 183 178 187 177 158 127 136 161 241
356 357 356 356 356 355 356 357 356 360 354 336 315 276 264 264 228 241 276 285 325 333 309 319 274 18 114 197 293 330 314 293 327 335 265 242 237 219 285 320 281 67 62 47 27 0 352 241 249 184 57 83 88 56 130 159 151 159 152 124 150 150 132 158 166 192 217 69 37 105 158 197 271 235 213 178 79 31 69 5 174 267 137 128 148 204 213
356 356 355 355 356 355 356 357 357 359 360 3 340 313 319 310 323 333 296 294 296 288 318 335 13 357 331 253 302 295 271 300 300 281 302 308 238 183 311 318 10 92 55 9 352 290 93 93 81 87 92 85 92 89 107 62 98 166 149 120 93 141 149 155 164 208 149 150 129 185 193 225 224 40 356 172 171 176 173 192 193 198 183 197 330 109 118
355 355 355 355 355 354 354 355 355 359 359 338 327 308 304 298 265 262 318 335 294 260 337 324 329 325 310 327 308 276 279 263 253 200 256 285 289 313 275 182 171 60 4 249 173 161 147 154 83 84 73 75 80 87 88 95 70 19 172 151 152 156 144 122 180 191 162 145 142 167 224 234 68 241 196 210 119 119 184 303 260 207 201 220 159 153 163
354 355 354 354 354 354 353 353 354 354 352 337 331 324 306 307 290 282 267 292 299 331 348 329 316 296 288 301 293 253 252 265 251 225 247 271 305 332 313 18 2 45 304 39 120 82 56 25 14 43 53 45 67 73 61 69 79 78 54 148 149 158 141 133 107 70 71 175 170 209 234 54 24 39 61 143 151 173 157 284 219 217 200 187 175 180 175
354 354 354 353 353 352 352 352 351 352 349 348 332 316 294 294 301 250 294 321 311 305 292 285 312 349 349 341 301 300 290 250 271 210 242 199 254 289 297 221 233 76 67 39 55 77 110 72 101 124 127 107 171 84 48 65 28 109 125 98 280 157 116 158 132 299 197 167 184 226 347 302 139 225 201 179 175 176 184 207 210 192 191 197 165 160 161
354 353 353 352 352 352 351 351 350 350 349 350 329 324 319 305 273 249 287 39 293 302 298 18 334 330 330 325 344 340 22 338 13 319 266 352 274 250 272 299 313 321 316 191 66 41 86 100 84 113 68 159 153 124 342 95 39 18 84 113 115 20 174 162 153 202 197 161 180 206 214 227 207 212 50 185 307 161 146 23 286 159 181 193 168 162 161
351 352 352 352 351 351 351 350 350 350 352 351 351 352 4 355 288 256 303 274 278 352 32 314 296 296 322 310 326 32 358 336 351 294 347 24 297 334 307 287 308 154 73 67 61 78 18 93 152 110 131 154 274 113 134 128 107 77 10 124 106 74 60 19 207 141 157 184 188 190 196 222 203 163 158 166 202 139 204 101 251 170 177 185 174 164 167
349 349 350 351 351 350 350 350 350 352 353 357 348 343 319 341 334 254 272 262 224 241 299 323 288 238 291 327 65 56 7 4 347 13 6 5 345 313 301 333 251 0 73 73 6 63 63 68 51 71 78 283 159 67 94 96 120 118 111 90 96 102 5 144 122 137 191 156 180 213 206 176 150 192 174 186 170 161 183 231 261 165 180 178 174 170 168
347 347 348 349 349 349 349 349 350 352 354 356 348 329 299 349 320 296 259 280 303 283 261 315 7 335 353 343 294 303 301 321 58 129 240 290 268 328 319 339 348 68 248 109 342 78 80 58 78 124 95 87 320 244 157 179 125 155 144 133 141 122 121 241 209 179 164 197 130 1 261 260 224 168 149 162 195 216 209 191 122 103 172 180 181 172 169
345 344 345 346 347 348 348 348 349 351 354 356 348 328 224 336 334 295 307 285 309 279 254 264 276 242 285 184 255 24 20 314 297 22 335 19 2 305 285 270 205 334 25 103 64 69 91 72 204 325 128 142 248 80 29 163 131 43 137 118 88 60 95 70 70 177 187 191 203 212 315 307 127 65 141 180 164 184 200 98 28 171 170 178 180 170 170
343 342 342 344 345 346 347 346 347 350 351 355 356 323 293 312 328 282 262 312 311 285 291 291 206 266 248 293 312 277 148 182 349 70 83 1 316 339 305 24 127 272 269 50 73 224 35 104 68 193 85 126 77 146 74 64 312 146 165 348 173 161 166 179 167 110 42 54 174 126 215 164 153 124 94 287 222 283 53 7 200 202 162 165 174 171 170
342 340 340 340 341 343 344 344 345 347 348 351 354 334 323 142 357 2 286 261 304 307 298 328 303 252 271 270 249 243 242 252 162 10 215 239 254 243 51 157 313 352 359 350 33 88 175 122 194 105 9 32 56 279 188 56 64 263 328 201 152 277 205 145 197 208 178 177 190 193 358 105 176 160 178 183 170 52 212 169 93 158 163 167 163 175 169
339 339 338 338 338 340 340 340 342 344 346 348 348 334 294 283 310 319 297 229 229 217 251 310 294 277 267 253 253 241 232 235 209 159 184 303 182 167 301 273 242 226 195 149 99 100 141 86 103 128 169 118 294 154 12 194 218 118 349 217 192 177 297 294 200 168 202 209 204 32 209 259 217 43 54 342 307 311 185 223 165 158 176 173 167 164 160
337 337 336 336 337 337 338 337 339 340 342 345 347 340 311 311 320 327 297 247 241 248 267 275 286 273 272 259 237 233 232 235 218 212 175 131 311 191 222 238 306 224 99 208 330 91 70 163 150 80 94 225 158 125 78 12 336 177 171 216 356 4 12 117 115 199 285 282 265 332 298 263 249 230 336 321 345 22 200 194 169 206 168 175 171 150 138
335 335 334 334 333 334 333 334 336 336 338 340 342 324 314 305 299 320 241 227 269 300 282 218 310 22 358 345 341 141 191 212 218 218 179 182 169 293 227 224 262 207 224 248 28 256 160 65 37 278 260 158 145 137 192 222 234 157 162 176 180 160 151 204 213 91 159 217 111 284 318 320 290 271 31 308 272 307 259 216 216 147 155 147 121 143 146
332 332 331 331 331 330 331 332 333 334 334 335 335 315 294 287 270 278 325 342 341 41 314 314 285 240 316 293 272 264 187 226 156 180 169 198 210 213 266 78 192 284 320 135 174 92 83 130 172 191 200 168 236 206 41 258 200 164 219 152 169 174 196 149 105 174 221 0 342 308 296 269 285 263 241 228 55 44 12 155 121 127 122 132 141 135 135
330 330 330 329 329 328 328 330 331 332 332 331 332 320 312 283 270 281 284 219 143 0 347 327 283 315 294 337 342 301 5 99 134 143 186 209 224 234 277 3 219 56 96 59 206 199 121 83 85 85 192 160 301 254 188 345 22 31 271 239 348 50 174 225 157 188 282 272 233 278 284 258 225 202 211 236 196 158 126 130 133 133 133 130 138 152 152
328 328 327 327 325 325 326 327 328 330 330 329 326 313 291 283 255 225 208 186 241 309 358 254 294 303 1 323 289 335 324 30 112 102 76 47 207 152 188 217 246 108 156 93 37 105 79 83 210 159 144 69 132 57 89 156 193 163 207 152 163 155 195 113 144 205 239 253 208 160 208 241 188 201 189 181 181 160 139 139 143 149 144 148 145 136 139
326 325 325 324 322 323 323 325 325 327 329 328 318 307 284 260 242 223 241 259 351 142 256 270 284 302 308 259 251 268 315 353 104 110 138 103 82 101 111 153 151 133 122 146 215 157 141 191 124 75 66 152 164 134 336 36 81 223 260 196 185 214 156 164 189 189 102 311 250 186 20 291 312 169 156 157 162 164 159 170 166 162 156 150 143 142 142
323 322 322 321 320 320 320 321 322 324 328 330 321 310 237 227 245 225 230 230 267 93 208 266 275 294 340 315 324 326 65 102 139 176 157 110 87 70 68 46 78 110 99 75 74 85 99 64 69 124 111 138 237 140 178 172 188 223 251 130 159 316 231 199 125 128 301 275 251 166 172 308 14 124 138 149 163 175 165 162 164 163 159 159 153 153 149
321 319 319 319 318 317 316 316 318 321 326 331 332 332 20 113 173 212 185 104 305 343 19 2 345 263 323 303 299 306 317 333 17 44 51 54 55 55 59 113 78 44 53 75 190 105 68 114 68 245 292 283 219 124 180 131 206 193 49 248 263 276 243 263 230 308 6 77 136 114 295 130 111 122 125 138 164 176 162 166 166 158 157 159 149 148 150
320 319 317 316 315 314 312 312 313 316 319 317 334 3 76 166 163 169 223 344 323 249 154 172 247 312 322 228 264 298 330 330 357 21 30 55 27 85 110 136 100 244 119 47 58 74 199 66 53 62 116 33 50 173 156 165 272 229 163 236 253 261 223 203 177 325 131 114 103 104 104 100 123 111 91 120 138 147 129 133 146 156 150 152 152 146 147
320 318 316 315 313 311 309 307 308 309 295 257 217 173 130 69 21 326 320 321 257 188 158 308 330 349 316 309 291 297 318 337 357 334 62 1 75 18 26 14 79 11 61 94 149 157 66 96 214 355 357 12 44 98 141 127 224 215 132 151 115 260 241 153 140 129 127 137 126 107 92 112 215 60 152 152 141 143 144 140 141 139 140 142 138 144 143
320 317 316 313 311 309 307 305 303 297 271 256 259 276 279 269 265 275 291 133 209 203 201 112 233 292 298 283 315 309 342 284 10 9 136 358 351 352 53 15 23 79 51 110 30 64 193 169 223 113 57 302 92 122 157 210 220 81 276 286 272 208 163 106 135 144 151 147 323 141 197 188 179 149 114 124 136 135 135 134 135 133 132 133 135 134 136
320 318 315 312 309 308 307 304 301 287 260 249 262 227 286 231 196 202 142 174 69 123 214 147 272 295 274 320 336 285 10 28 333 345 339 47 289 289 329 2 12 85 9 15 162 175 150 251 54 338 232 50 34 214 246 242 136 191 210 216 205 128 128 127 147 158 165 345 250 297 91 100 98 114 115 116 115 126 130 132 139 141 142 139 140 140 136
320 317 313 311 309 307 307 307 264 151 187 212 256 243 186 120 20 311 213 199 192 286 50 314 86 278 317 347 7 277 356 257 307 34 339 2 23 9 319 34 339 59 36 100 74 33 26 35 224 215 152 320 282 263 247 212 179 177 165 164 161 132 122 116 160 153 54 121 92 97 112 124 127 125 128 127 130 141 143 148 149 145 143 141 138 137 136
321 317 314 311 308 308 298 187 185 139 152 226 152 35 317 310 311 317 212 215 285 154 131 269 106 220 156 269 316 286 307 58 58 278 200 295 296 82 61 109 100 110 296 11 92 303 63 25 283 287 58 244 224 208 208 191 172 179 183 184 181 176 182 196 150 128 91 88 101 114 121 124 125 130 130 136 140 148 147 147 149 145 140 138 140 139 134
322 319 315 310 301 144 54 170 323 50 40 297 288 294 290 287 320 141 124 172 223 265 238 158 198 215 183 228 265 272 354 328 355 336 350 12 326 327 10 35 65 330 58 38 26 33 46 305 276 210 224 218 259 227 229 174 187 177 191 194 180 177 122 108 123 119 102 95 99 101 113 120 114 122 130 139 145 147 148 150 153 147 146 143 139 140 141
322 319 328 340 0 37 63 345 46 325 319 300 304 276 117 134 141 66 51 138 283 20 344 78 246 231 26 128 237 262 30 258 69 325 293 189 214 41 348 58 21 282 236 292 347 25 316 45 31 335 277 262 273 260 244 233 231 209 182 168 165 169 150 141 142 127 118 114 110 125 123 129 132 147 146 145 150 156 151 141 142 137 132 133 134 127 126
321 315 356 2 45 257 142 15 336 324 314 271 243 213 201 342 101 162 189 251 26 180 261 181 237 159 167 205 273 302 204 349 329 25 197 127 204 286 355 325 30 63 37 350 111 331 285 68 29 350 277 298 333 57 252 251 254 215 195 168 155 160 162 165 164 154 163 179 172 169 160 161 161 166 160 150 146 137 140 141 138 138 138 133 133 138 135
355 7 357 336 334 288 305 300 324 322 277 210 312 126 177 327 153 237 25 131 216 300 134 218 196 182 211 227 244 294 87 178 240 282 205 292 103 3 285 118 278 98 51 336 337 344 297 292 336 331 293 240 248 269 322 139 139 148 169 153 157 167 178 175 174 360 12 15 153 166 150 144 147 151 159 155 148 145 147 149 145 143 143 145 145 146 151
0 337 333 313 301 317 310 316 317 260 295 105 26 9 66 234 323 192 87 72 236 219 218 266 120 230 161 59 138 231 295 89 75 66 132 32 163 115 58 72 261 106 14 262 8 37 83 92 343 240 283 243 259 86 266 163 146 143 151 151 153 159 170 178 179 93 132 125 133 135 140 151 148 151 158 159 154 151 154 150 154 152 145 142 154 149 126
307 294 280 286 286 286 301 289 227 301 19 29 134 235 239 248 344 311 180 192 244 261 106 178 246 250 255 189 212 201 265 32 112 123 121 180 342 171 155 353 349 88 237 68 58 71 60 265 305 290 260 267 257 287 217 172 167 163 165 166 157 159 167 174 174 172 187 160 148 142 143 153 156 153 154 157 155 150 149 149 149 154 156 145 127 128 138
304 295 283 280 305 275 266 304 304 116 144 355 49 39 351 85 217 182 262 261 284 1 339 220 263 265 292 323 257 213 235 180 256 231 114 329 78 55 85 40 46 51 123 48 63 53 9 242 244 262 272 294 276 217 208 220 129 148 140 159 157 162 168 167 167 153 163 158 157 151 151 154 160 162 154 148 142 142 150 155 156 153 147 146 149 144 145
314 273 254 255 307 262 163 170 333 66 0 46 115 183 205 179 278 22 96 36 353 54 23 350 342 354 344 38 309 13 333 230 76 78 73 333 75 345 57 106 328 2 9 50 33 253 295 251 239 271 292 290 274 233 209 193 166 139 126 136 128 138 133 121 127 128 122 108 96 109 131 138 134 138 155 153 154 154 156 157 157 150 152 146 144 150 150
355 352 357 306 282 270 87 266 331 117 205 249 152 163 149 136 180 193 58 310 208 316 347 299 298 282 267 290 322 202 33 194 328 136 217 68 74 41 127 4 201 29 37 277 339 306 322 276 241 252 273 280 255 203 189 183 179 171 145 137 147 149 159 158 157 145 145 151 147 147 150 150 150 157 166 170 167 154 152 156 159 153 156 155 149 146 152
30 22 346 31 322 318 91 201 344 100 303 173 62 225 162 333 120 98 214 135 305 307 320 318 299 242 270 272 238 355 355 125 165 77 131 70 104 163 48 246 86 75 43 63 58 258 240 272 294 285 287 295 295 191 180 178 168 142 141 155 172 172 176 167 163 159 155 146 148 154 153 160 161 158 167 171 164 164 159 151 159 161 157 152 157 155 156
248 162 121 137 2 272 77 97 280 235 342 30 39 17 321 329 277 272 287 259 267 284 293 270 259 247 280 322 268 221 65 28 136 113 190 169 166 209 16 200 281 113 145 271 255 253 268 257 240 255 278 290 249 179 176 169 172 179 183 151 156 167 169 168 166 163 155 151 149 153 158 167 168 167 151 152 164 168 160 157 162 159 160 165 161 152 155
320 269 58 78 275 273 23 47 308 287 221 305 357 306 288 266 292 345 290 213 273 315 300 314 306 148 222 201 237 179 319 314 128 201 204 138 73 32 19 32 295 253 211 195 234 221 247 265 270 294 314 297 208 172 178 176 181 186 175 167 170 166 172 169 170 160 156 160 164 165 166 165 163 163 173 169 161 163 167 170 167 170 166 149 147 156 161
134 97 329 207 214 154 248 349 332 142 44 334 302 303 341 352 326 283 288 272 289 293 283 231 227 239 244 103 114 58 221 94 164 205 87 44 144 200 152 206 328 306 241 200 240 213 235 271 286 280 269 232 212 199 195 191 180 180 181 176 176 176 174 174 172 170 175 171 166 163 167 168 169 171 169 156 160 170 175 178 172 166 159 156 158 164 168
68 352 6 229 290 236 278 264 336 314 326 342 43 11 326 310 312 298 314 319 316 308 246 187 198 257 345 178 267 9 252 224 151 81 66 201 168 143 88 313 219 198 333 175 228 246 242 245 262 273 245 203 194 191 189 189 194 198 189 180 170 167 177 175 167 167 173 177 177 176 163 159 171 173 170 179 179 156 155 170 178 173 171 169 164 166 172
123 148 248 255 238 235 8 341 26 343 339 354 344 338 8 329 299 313 34 337 320 327 57 33 353 0 328 24 49 157 228 159 148 174 173 189 152 130 188 206 226 205 231 228 223 250 285 301 281 286 295 259 214 205 194 186 184 193 187 180 176 176 175 175 170 170 178 179 170 158 165 178 181 180 182 158 135 147 161 173 182 182 175 175 176 173 173
66 122 239 352 254 265 243 348 217 248 267 290 294 261 62 288 281 294 344 327 329 35 11 251 106 23 64 205 224 307 323 37 24 62 276 249 175 162 200 197 183 203 215 246 278 245 249 260 238 248 265 284 288 220 200 195 187 181 181 183 176 174 175 176 176 175 169 164 170 179 186 184 178 167 146 149 151 155 165 177 186 186 181 181 186 186 181